Time,TemperatureF,DewpointF,PressureIn,WindDirection,WindDirectionDegrees,WindSpeedMPH,WindSpeedGustMPH,Humidity,HourlyPrecipIn,Conditions,Clouds,dailyrainin,SoftwareType,DateUTC
2016-07-27 00:01:00,82.2,73.5,30.02,North,360,3.0,4.0,75,0.00,,---,0.00,VWS V15.00,2016-07-27 04:01:00,
2016-07-27 00:06:00,81.7,73.4,30.02,North,360,1.0,8.0,76,0.00,,---,0.00,VWS V15.00,2016-07-27 04:06:00,
2016-07-27 00:11:00,81.3,73.4,30.02,North,360,2.0,8.0,77,0.00,,---,0.00,VWS V15.00,2016-07-27 04:11:00,
2016-07-27 00:16:00,81.0,73.1,30.02,North,360,1.0,8.0,77,0.00,,---,0.00,VWS V15.00,2016-07-27 04:16:00,
2016-07-27 00:21:00,80.8,73.3,30.02,North,360,0.0,8.0,78,0.00,,---,0.00,VWS V15.00,2016-07-27 04:21:00,
2016-07-27 00:26:00,80.6,73.1,30.01,North,360,0.0,8.0,78,0.00,,---,0.00,VWS V15.00,2016-07-27 04:26:00,
2016-07-27 00:31:00,80.4,73.3,30.02,North,360,2.0,3.0,79,0.00,,---,0.00,VWS V15.00,2016-07-27 04:31:00,
2016-07-27 00:36:00,80.3,73.2,30.01,North,360,0.0,3.0,79,0.00,,---,0.00,VWS V15.00,2016-07-27 04:36:00,
2016-07-27 00:41:00,80.2,73.1,30.01,North,360,0.0,3.0,79,0.00,,---,0.00,VWS V15.00,2016-07-27 04:41:00,
2016-07-27 00:46:00,80.2,73.1,30.01,North,360,1.0,3.0,79,0.00,,---,0.00,VWS V15.00,2016-07-27 04:46:00,
2016-07-27 00:51:00,80.2,73.1,30.01,North,360,0.0,3.0,79,0.00,,---,0.00,VWS V15.00,2016-07-27 04:51:00,
2016-07-27 00:56:00,80.1,73.0,30.01,North,360,0.0,3.0,79,0.00,,---,0.00,VWS V15.00,2016-07-27 04:56:00,
2016-07-27 01:01:00,80.1,73.0,30.01,North,360,0.0,0.0,79,0.00,,---,0.00,VWS V15.00,2016-07-27 05:01:00,
2016-07-27 01:06:00,80.0,72.9,30.01,North,360,0.0,2.0,79,0.00,,---,0.00,VWS V15.00,2016-07-27 05:06:00,
2016-07-27 01:11:00,80.0,72.9,30.01,North,360,0.0,2.0,79,0.00,,---,0.00,VWS V15.00,2016-07-27 05:11:00,
2016-07-27 01:16:00,80.0,72.9,30.01,North,360,1.0,2.0,79,0.00,,---,0.00,VWS V15.00,2016-07-27 05:16:00,
2016-07-27 01:21:00,80.0,72.9,30.01,North,360,0.0,2.0,79,0.00,,---,0.00,VWS V15.00,2016-07-27 05:21:00,
2016-07-27 01:26:00,79.9,72.8,30.01,North,360,0.0,2.0,79,0.00,,---,0.00,VWS V15.00,2016-07-27 05:26:00,
2016-07-27 01:31:00,79.9,72.8,30.01,North,360,0.0,1.0,79,0.00,,---,0.00,VWS V15.00,2016-07-27 05:31:00,
2016-07-27 01:36:00,79.8,73.1,30.01,North,360,0.0,1.0,80,0.00,,---,0.00,VWS V15.00,2016-07-27 05:36:00,
2016-07-27 01:41:00,79.7,73.0,30.01,North,360,0.0,1.0,80,0.00,,---,0.00,VWS V15.00,2016-07-27 05:41:00,
2016-07-27 01:46:00,79.7,73.0,30.01,North,360,0.0,1.0,80,0.00,,---,0.00,VWS V15.00,2016-07-27 05:46:00,
2016-07-27 01:51:00,79.7,73.0,30.01,North,360,0.0,1.0,80,0.00,,---,0.00,VWS V15.00,2016-07-27 05:51:00,
2016-07-27 01:56:00,79.7,73.4,30.00,North,360,1.0,1.0,81,0.00,,---,0.00,VWS V15.00,2016-07-27 05:56:00,
2016-07-27 02:01:00,79.7,73.7,30.00,North,360,1.0,2.0,82,0.00,,---,0.00,VWS V15.00,2016-07-27 06:01:00,
2016-07-27 02:06:00,79.4,73.4,30.00,North,360,0.0,2.0,82,0.00,,---,0.00,VWS V15.00,2016-07-27 06:06:00,
2016-07-27 02:11:00,79.3,73.3,30.00,North,360,0.0,2.0,82,0.00,,---,0.00,VWS V15.00,2016-07-27 06:11:00,
2016-07-27 02:16:00,79.2,73.2,30.00,North,360,0.0,2.0,82,0.00,,---,0.00,VWS V15.00,2016-07-27 06:16:00,
2016-07-27 02:21:00,79.1,73.1,30.00,North,360,0.0,2.0,82,0.00,,---,0.00,VWS V15.00,2016-07-27 06:21:00,
2016-07-27 02:26:00,79.0,73.0,30.00,North,360,1.0,2.0,82,0.00,,---,0.00,VWS V15.00,2016-07-27 06:26:00,
2016-07-27 02:31:00,78.9,73.3,30.00,North,360,1.0,1.0,83,0.00,,---,0.00,VWS V15.00,2016-07-27 06:31:00,
2016-07-27 02:36:00,78.8,73.2,30.00,North,360,1.0,1.0,83,0.00,,---,0.00,VWS V15.00,2016-07-27 06:36:00,
2016-07-27 02:41:00,78.9,73.3,30.00,North,360,0.0,1.0,83,0.00,,---,0.00,VWS V15.00,2016-07-27 06:41:00,
2016-07-27 02:46:00,78.8,73.2,30.00,North,360,0.0,2.0,83,0.00,,---,0.00,VWS V15.00,2016-07-27 06:46:00,
2016-07-27 02:51:00,78.8,73.2,30.00,North,360,1.0,2.0,83,0.00,,---,0.00,VWS V15.00,2016-07-27 06:51:00,
2016-07-27 02:56:00,78.8,73.2,30.00,North,360,0.0,2.0,83,0.00,,---,0.00,VWS V15.00,2016-07-27 06:56:00,
2016-07-27 03:01:00,78.9,73.3,30.00,North,360,2.0,3.0,83,0.00,,---,0.00,VWS V15.00,2016-07-27 07:01:00,
2016-07-27 03:06:00,78.9,73.3,30.00,North,360,0.0,3.0,83,0.00,,---,0.00,VWS V15.00,2016-07-27 07:06:00,
2016-07-27 03:11:00,79.0,73.4,30.00,North,360,1.0,3.0,83,0.00,,---,0.00,VWS V15.00,2016-07-27 07:11:00,
2016-07-27 03:16:00,79.0,73.4,30.00,North,360,0.0,3.0,83,0.00,,---,0.00,VWS V15.00,2016-07-27 07:16:00,
2016-07-27 03:21:00,79.1,73.5,29.99,North,360,1.0,3.0,83,0.00,,---,0.00,VWS V15.00,2016-07-27 07:21:00,
2016-07-27 03:26:00,79.2,73.2,29.99,North,360,3.0,3.0,82,0.00,,---,0.00,VWS V15.00,2016-07-27 07:26:00,
2016-07-27 03:31:00,79.2,73.2,29.99,North,360,1.0,2.0,82,0.00,,---,0.00,VWS V15.00,2016-07-27 07:31:00,
2016-07-27 03:36:00,79.2,73.2,29.99,North,360,2.0,3.0,82,0.00,,---,0.00,VWS V15.00,2016-07-27 07:36:00,
2016-07-27 03:41:00,79.0,73.0,29.99,NNE,24,2.0,6.0,82,0.00,,---,0.00,VWS V15.00,2016-07-27 07:41:00,
2016-07-27 03:46:00,78.8,73.2,29.99,NNE,26,2.0,6.0,83,0.00,,---,0.00,VWS V15.00,2016-07-27 07:46:00,
2016-07-27 03:51:00,78.6,73.0,29.98,North,360,3.0,6.0,83,0.00,,---,0.00,VWS V15.00,2016-07-27 07:51:00,
2016-07-27 03:56:00,78.5,72.9,29.99,North,360,0.0,6.0,83,0.00,,---,0.00,VWS V15.00,2016-07-27 07:56:00,
2016-07-27 04:01:00,78.3,72.7,29.99,North,360,0.0,0.0,83,0.00,,---,0.00,VWS V15.00,2016-07-27 08:01:00,
2016-07-27 04:06:00,78.2,72.6,29.99,North,360,0.0,0.0,83,0.00,,---,0.00,VWS V15.00,2016-07-27 08:06:00,
2016-07-27 04:11:00,78.2,72.6,29.99,North,360,0.0,0.0,83,0.00,,---,0.00,VWS V15.00,2016-07-27 08:11:00,
2016-07-27 04:16:00,78.2,72.6,29.99,North,360,0.0,0.0,83,0.00,,---,0.00,VWS V15.00,2016-07-27 08:16:00,
2016-07-27 04:21:00,78.3,72.7,29.99,North,360,0.0,0.0,83,0.00,,---,0.00,VWS V15.00,2016-07-27 08:21:00,
2016-07-27 04:26:00,78.2,72.6,29.98,North,360,0.0,0.0,83,0.00,,---,0.00,VWS V15.00,2016-07-27 08:26:00,
2016-07-27 04:31:00,78.2,72.6,29.98,North,360,0.0,0.0,83,0.00,,---,0.00,VWS V15.00,2016-07-27 08:31:00,
2016-07-27 04:36:00,78.3,72.7,29.98,North,360,0.0,0.0,83,0.00,,---,0.00,VWS V15.00,2016-07-27 08:36:00,
2016-07-27 04:41:00,78.3,72.7,29.98,North,360,0.0,0.0,83,0.00,,---,0.00,VWS V15.00,2016-07-27 08:41:00,
2016-07-27 04:46:00,78.2,72.6,29.98,North,360,0.0,0.0,83,0.00,,---,0.00,VWS V15.00,2016-07-27 08:46:00,
2016-07-27 04:51:00,78.2,72.6,29.98,North,360,0.0,0.0,83,0.00,,---,0.00,VWS V15.00,2016-07-27 08:51:00,
2016-07-27 04:56:00,78.2,72.6,29.98,North,360,0.0,0.0,83,0.00,,---,0.00,VWS V15.00,2016-07-27 08:56:00,
2016-07-27 05:01:00,78.1,72.5,29.98,North,360,0.0,0.0,83,0.00,,---,0.00,VWS V15.00,2016-07-27 09:01:00,
2016-07-27 05:06:00,78.1,72.5,29.98,North,360,0.0,0.0,83,0.00,,---,0.00,VWS V15.00,2016-07-27 09:06:00,
2016-07-27 05:11:00,78.1,72.5,29.98,North,360,0.0,0.0,83,0.00,,---,0.00,VWS V15.00,2016-07-27 09:11:00,
2016-07-27 05:12:00,78.1,72.5,29.98,North,360,0.0,0.0,83,0.00,,---,0.00,VWS V15.00,2016-07-27 09:12:00,
2016-07-27 05:17:00,78.1,72.5,29.99,North,360,0.0,0.0,83,0.00,,---,0.00,VWS V15.00,2016-07-27 09:17:00,
2016-07-27 05:23:00,78.1,72.5,29.98,North,360,0.0,0.0,83,0.00,,---,0.00,VWS V15.00,2016-07-27 09:23:00,
2016-07-27 05:28:00,78.1,72.5,29.98,North,360,0.0,0.0,83,0.00,,---,0.00,VWS V15.00,2016-07-27 09:28:00,
2016-07-27 05:33:00,78.1,72.5,29.98,North,360,0.0,0.0,83,0.00,,---,0.00,VWS V15.00,2016-07-27 09:33:00,
2016-07-27 05:38:00,78.1,72.5,29.99,North,360,0.0,0.0,83,0.00,,---,0.00,VWS V15.00,2016-07-27 09:38:00,
2016-07-27 05:43:00,78.2,72.6,29.98,North,360,0.0,0.0,83,0.00,,---,0.00,VWS V15.00,2016-07-27 09:43:00,
2016-07-27 05:48:00,78.4,73.2,29.98,North,360,0.0,0.0,84,0.00,,---,0.00,VWS V15.00,2016-07-27 09:48:00,
2016-07-27 05:53:00,78.5,73.3,29.98,North,360,0.0,0.0,84,0.00,,---,0.00,VWS V15.00,2016-07-27 09:53:00,
2016-07-27 05:58:00,78.6,73.4,29.98,North,360,0.0,0.0,84,0.00,,---,0.00,VWS V15.00,2016-07-27 09:58:00,
2016-07-27 06:02:00,78.6,73.4,29.99,North,360,0.0,0.0,84,0.00,,---,0.00,VWS V15.00,2016-07-27 10:02:00,
2016-07-27 06:07:00,78.5,73.3,29.99,North,360,0.0,0.0,84,0.00,,---,0.00,VWS V15.00,2016-07-27 10:07:00,
2016-07-27 06:12:00,78.5,73.3,29.99,North,360,0.0,0.0,84,0.00,,---,0.00,VWS V15.00,2016-07-27 10:12:00,
2016-07-27 06:17:00,78.6,73.4,30.00,North,360,0.0,0.0,84,0.00,,---,0.00,VWS V15.00,2016-07-27 10:17:00,
2016-07-27 06:22:00,78.6,73.4,30.00,North,360,0.0,0.0,84,0.00,,---,0.00,VWS V15.00,2016-07-27 10:22:00,
2016-07-27 06:27:00,78.6,73.4,30.00,North,360,1.0,4.0,84,0.00,,---,0.00,VWS V15.00,2016-07-27 10:27:00,
2016-07-27 06:32:00,78.7,73.5,30.00,North,360,3.0,3.0,84,0.00,,---,0.00,VWS V15.00,2016-07-27 10:32:00,
2016-07-27 06:37:00,78.8,73.6,30.00,North,360,2.0,4.0,84,0.00,,---,0.00,VWS V15.00,2016-07-27 10:37:00,
2016-07-27 06:42:00,79.0,73.8,30.00,North,360,2.0,4.0,84,0.00,,---,0.00,VWS V15.00,2016-07-27 10:42:00,
2016-07-27 06:47:00,79.2,73.9,30.01,North,360,2.0,4.0,84,0.00,,---,0.00,VWS V15.00,2016-07-27 10:47:00,
2016-07-27 06:52:00,79.2,73.9,30.01,North,360,3.0,4.0,84,0.00,,---,0.00,VWS V15.00,2016-07-27 10:52:00,
2016-07-27 06:57:00,79.3,74.1,30.02,North,360,5.0,6.0,84,0.00,,---,0.00,VWS V15.00,2016-07-27 10:57:00,
2016-07-27 07:02:00,79.5,73.9,30.02,North,360,5.0,10.0,83,0.00,,---,0.00,VWS V15.00,2016-07-27 11:02:00,
2016-07-27 07:07:00,79.5,73.5,30.02,North,360,12.0,12.0,82,0.00,,---,0.00,VWS V15.00,2016-07-27 11:07:00,
2016-07-27 07:12:00,79.5,73.2,30.01,North,360,4.0,12.0,81,0.00,,---,0.00,VWS V15.00,2016-07-27 11:12:00,
2016-07-27 07:17:00,79.4,73.4,30.02,North,360,2.0,12.0,82,0.00,,---,0.00,VWS V15.00,2016-07-27 11:17:00,
2016-07-27 07:22:00,79.3,73.3,30.02,North,360,3.0,12.0,82,0.00,,---,0.00,VWS V15.00,2016-07-27 11:22:00,
2016-07-27 07:27:00,79.3,73.3,30.02,North,360,2.0,12.0,82,0.00,,---,0.00,VWS V15.00,2016-07-27 11:27:00,
2016-07-27 07:32:00,79.4,73.4,30.02,North,360,2.0,4.0,82,0.00,,---,0.00,VWS V15.00,2016-07-27 11:32:00,
2016-07-27 07:37:00,79.4,73.4,30.02,North,360,3.0,5.0,82,0.00,,---,0.00,VWS V15.00,2016-07-27 11:37:00,
2016-07-27 07:42:00,79.3,73.3,30.02,North,360,2.0,6.0,82,0.00,,---,0.00,VWS V15.00,2016-07-27 11:42:00,
2016-07-27 07:47:00,79.4,73.4,30.03,North,360,3.0,6.0,82,0.00,,---,0.00,VWS V15.00,2016-07-27 11:47:00,
2016-07-27 07:52:00,79.5,73.2,30.03,North,360,3.0,9.0,81,0.00,,---,0.00,VWS V15.00,2016-07-27 11:52:00,
2016-07-27 07:57:00,79.7,73.0,30.03,North,360,5.0,9.0,80,0.00,,---,0.00,VWS V15.00,2016-07-27 11:57:00,
2016-07-27 08:02:00,80.0,72.9,30.03,North,360,4.0,7.0,79,0.00,,---,0.00,VWS V15.00,2016-07-27 12:02:00,
2016-07-27 08:07:00,80.2,72.3,30.03,North,360,6.0,10.0,77,0.00,,---,0.00,VWS V15.00,2016-07-27 12:07:00,
2016-07-27 08:12:00,80.2,71.6,30.03,North,360,7.0,10.0,75,0.00,,---,0.00,VWS V15.00,2016-07-27 12:12:00,
2016-07-27 08:17:00,80.2,70.8,30.03,North,360,4.0,10.0,73,0.00,,---,0.00,VWS V15.00,2016-07-27 12:17:00,
2016-07-27 08:22:00,80.1,70.3,30.03,North,360,6.0,12.0,72,0.00,,---,0.00,VWS V15.00,2016-07-27 12:22:00,
2016-07-27 08:27:00,80.1,70.7,30.03,North,360,6.0,12.0,73,0.00,,---,0.00,VWS V15.00,2016-07-27 12:27:00,
2016-07-27 08:32:00,80.1,71.5,30.03,North,360,4.0,5.0,75,0.00,,---,0.00,VWS V15.00,2016-07-27 12:32:00,
2016-07-27 08:37:00,80.0,71.4,30.03,North,360,1.0,7.0,75,0.00,,---,0.00,VWS V15.00,2016-07-27 12:37:00,
2016-07-27 08:42:00,80.0,71.8,30.03,North,360,3.0,7.0,76,0.00,,---,0.00,VWS V15.00,2016-07-27 12:42:00,
2016-07-27 08:47:00,80.1,72.2,30.03,North,360,3.0,7.0,77,0.00,,---,0.00,VWS V15.00,2016-07-27 12:47:00,
2016-07-27 08:52:00,80.1,72.2,30.03,North,360,3.0,7.0,77,0.00,,---,0.00,VWS V15.00,2016-07-27 12:52:00,
2016-07-27 08:57:00,80.2,72.3,30.03,North,360,5.0,7.0,77,0.00,,---,0.00,VWS V15.00,2016-07-27 12:57:00,
2016-07-27 09:02:00,80.3,72.4,30.03,North,360,1.0,4.0,77,0.00,,---,0.00,VWS V15.00,2016-07-27 13:02:00,
2016-07-27 09:07:00,80.4,72.5,30.03,North,360,3.0,5.0,77,0.00,,---,0.00,VWS V15.00,2016-07-27 13:07:00,
2016-07-27 09:12:00,80.6,72.3,30.03,North,360,5.0,7.0,76,0.00,,---,0.00,VWS V15.00,2016-07-27 13:12:00,
2016-07-27 09:17:00,80.8,72.1,30.04,North,360,5.0,7.0,75,0.00,,---,0.00,VWS V15.00,2016-07-27 13:17:00,
2016-07-27 09:22:00,81.1,72.0,30.03,North,360,3.0,7.0,74,0.00,,---,0.00,VWS V15.00,2016-07-27 13:22:00,
2016-07-27 09:27:00,81.4,72.3,30.03,North,360,2.0,7.0,74,0.00,,---,0.00,VWS V15.00,2016-07-27 13:27:00,
2016-07-27 09:32:00,81.7,72.6,30.03,North,360,3.0,6.0,74,0.00,,---,0.00,VWS V15.00,2016-07-27 13:32:00,
2016-07-27 09:37:00,82.0,72.9,30.03,North,360,3.0,6.0,74,0.00,,---,0.00,VWS V15.00,2016-07-27 13:37:00,
2016-07-27 09:42:00,82.4,73.3,30.03,North,360,4.0,6.0,74,0.00,,---,0.00,VWS V15.00,2016-07-27 13:42:00,
2016-07-27 09:47:00,82.6,73.1,30.03,North,360,2.0,6.0,73,0.00,,---,0.00,VWS V15.00,2016-07-27 13:47:00,
2016-07-27 09:52:00,83.0,73.9,30.04,North,360,5.0,6.0,74,0.00,,---,0.00,VWS V15.00,2016-07-27 13:52:00,
2016-07-27 09:57:00,83.4,73.8,30.04,North,360,2.0,6.0,73,0.00,,---,0.00,VWS V15.00,2016-07-27 13:57:00,
2016-07-27 10:02:00,83.7,74.1,30.04,North,360,3.0,5.0,73,0.00,,---,0.00,VWS V15.00,2016-07-27 14:02:00,